Location: Maiden
(35.5760°N, 81.2120°W)
Time: 02:54:19
(UTC-04:00)

Vanguard 2 - Pass Details

Date: 13 August 2020
Orbit: 553 x 2937 km, 32.9° (Epoch: 20 September)

Event Time Altitude Azimuth Distance (km) Brightness Sun altitude
Rises 00:51:26 0° 277° (W) 6,497 12.5 -39.1°
Reaches altitude 10° 00:56:11 10° 276° (W) 5,237 11.9 -39.3°
Enters shadow 01:07:02 51° 255° (WSW) 2,404 9.8 -39.6°
Maximum altitude 01:10:24 67° 198° (SSW) 1,915 - -39.7°
Drops below altitude 10° 01:18:53 10° 117° (ESE) 3,259 - -39.8°
Sets 01:21:11 0° 115° (ESE) 3,977 - -39.9°
